Preview of NWS' New Version of Forecast
This preview is not operational and should not be used for support decisions.

Regional Weather Roundup (RWR)

Issued by National Weather Service (NWS)

                            
000
ASUS44 KMEG 201200
RWRTN 
TENNESSEE HOURLY STATE WEATHER ROUNDUP
NATIONAL WEATHER SERVICE MEMPHIS TN
700 AM CDT THU JUN 20 2019

TNZ002-004-019-021-049-052-054-088>092-201300-
WEST TENNESSEE
  
CITY           SKY/WX    TMP DP  RH WIND       PRES   REMARKS
MEMPHIS INTL   PTSUNNY   70  68  93 S6        29.75S                  
NWS MEMPHIS      N/A     70 N/A N/A MISG        N/A                   
JACKSON        LGT RAIN  69  68  96 SW5       29.75F                  
DYERSBURG      FAIR      70  68  93 CALM      29.75S                  
$$

TNZ008-025-027-028-033-062-065-066-201300-
NORTH MIDDLE TENNESSEE
  
CITY           SKY/WX    TMP DP  RH WIND       PRES   REMARKS
NASHVILLE      CLOUDY    71  66  84 S8        29.75S                  
CLARKSVILLE    PTSUNNY   70  67  90 SW7       29.72R                  
SMYRNA         PTSUNNY   70  68  93 S5        29.76F                  
CROSSVILLE     PTSUNNY   66  64  93 W10       29.79F                  
$$

TNZ061-075-076-078-094-096-097-201300-
SOUTH MIDDLE TENNESSEE
  
CITY           SKY/WX    TMP DP  RH WIND       PRES   REMARKS
$$

TNZ017-018-042-046-047-201300-
NORTHEAST TENNESSEE
  
CITY           SKY/WX    TMP DP  RH WIND       PRES   REMARKS
TRI CITIES     TSTM      66  64  93 CALM      29.81R FOG              
$$

TNZ012-013-036-069-073-074-201300-
CENTRAL EAST TENNESSEE
  
CITY           SKY/WX    TMP DP  RH WIND       PRES   REMARKS
KNOXVILLE      TSTM      70  66  87 SW21G43   29.77R VSB 1            
OAK RIDGE      LGT RAIN  68  65  90 VRB5      29.76F FOG              
$$

TNZ083-085-099-201300-
SOUTHEAST TENNESSEE
  
CITY           SKY/WX    TMP DP  RH WIND       PRES   REMARKS
CHATTANOOGA    PTSUNNY   75  70  84 S6        29.80R                  
$$

SKY/WX REPORTED AS FAIR MEANS FEW OR NO CLOUDS BELOW
12 THOUSAND FEET.